Regional Weather Roundup
Issued by NWS

Home | Current Version | Previous Version | Text Only | Print | Product List | Glossary On
Versions: 1 2 3 4 5 6 7 8 9 10 11 12 13 14 15 16 17 18 19 20 21 22 23 24 25 26 27 28 29 30 31 32 33 34 35 36 37 38 39 40 41 42 43 44 45 46 47 48 49 50
000
ASUS43 KLSX 020857
RWRMO

WEATHER SUMMARY FOR MISSOURI
NATIONAL WEATHER SERVICE SPRINGFIELD MO
300 AM CST FRI DEC 02 2016

NOTE: "FAIR" INDICATES FEW OR NO CLOUDS BELOW 12,000 FEET WITH NO
       SIGNIFICANT WEATHER AND/OR OBSTRUCTIONS TO VISIBILITY.
       CURRENT SKY AND/OR WEATHER CONDITIONS ARE NOT AVAILABLE FOR
       CHILLICOTHE AND FARMINGTON.

MOZ001>031-035>038-043-044-053-054-021000-
...NORTHERN AND WESTERN MISSOURI...

CITY           SKY/WX    TMP DP  RH WIND       PRES   REMARKS
KANSAS CTY INT CLEAR     29  22  75 CALM      30.15R
LEE`S SUMMIT   CLOUDY    33  24  69 SW3       30.16R
ST JOSEPH      CLEAR     21  20  96 NW3       30.16S
CHILLICOTHE      N/A     23  21  92 CALM      30.17S

$$
MOZ066>068-077>081-088>096-101>105-021000-
...SOUTHWEST MISSOURI...

CITY           SKY/WX    TMP DP  RH WIND       PRES   REMARKS
SPRINGFIELD    CLOUDY    39  28  64 CALM      30.14R
JOPLIN         CLOUDY    40  27  59 E6        30.14S

$$
MOZ032>034-039>042-045>050-055>058-069>072-021000-
...CENTRAL MISSOURI...

CITY           SKY/WX    TMP DP  RH WIND       PRES   REMARKS
COLUMBIA       NOT AVBL
JEFFERSON CITY CLEAR     24  22  91 CALM      30.18R
ROLLA          MOCLDY    27  22  81 S6        30.14F WCI  20
SEDALIA        CLOUDY    29  23  78 SW3       30.17R
WARRENSBURG    CLOUDY    27  25  93 NW3       30.17R

$$
MOZ051-052-059>065-021000-
...EAST CENTRAL MISSOURI...

CITY           SKY/WX    TMP DP  RH WIND       PRES   REMARKS
ST LOUIS INTL  CLEAR     30  25  81 CALM      30.17R
ST CHARLES     PTCLDY    27  27 100 SW5       30.17S FOG     WCI  21

$$
MOZ072>076-082>087-097>100-106>115-021000-
...SOUTH CENTRAL AND SOUTHEAST MISSOURI...

CITY           SKY/WX    TMP DP  RH WIND       PRES   REMARKS
CAPE GIRARDEAU CLEAR     28  26  92 CALM      30.18R
POPLAR BLUFF   PTCLDY    31  28  89 NW5       30.18S WCI  26
WEST PLAINS    CLOUDY    34  24  67 NE5       30.16S WCI  30

$$



USA.gov is the U.S. government's official web portal to all federal, state and local government web resources and services.